Kenosha, WI

3:37 AM CDT on March 28, 2017 (GMT -0500)
Kenosha Regional

Weather History for KENW - July, 2013

Change the Weather History Date:

Saturday, July 27, 2013

  Actual Average Record
Temperature  
Mean Temperature 59 °F -  
Max Temperature 63 °F 79 °F 100 °F (1955)
Min Temperature 55 °F 62 °F 50 °F (1975)
Degree Days  
Heating Degree Days 6    
Growing Degree Days 9 (Base 50)    
Moisture  
Dew Point 51 °F    
Average Humidity 76    
Maximum Humidity 90    
Minimum Humidity 56    
Precipitation  
Precipitation 0.00 in - - ()
Sea Level Pressure  
Sea Level Pressure 29.90 in    
Wind  
Wind Speed 7 mph (NW)    
Max Wind Speed 14 mph    
Max Gust Speed 18 mph    
Visibility 10 miles    
Events      
Averages and records for this station are not official NWS values.
T = Trace of Precipitation, MM = Missing Value Source: NWS Daily Summary

Daily Weather History Graph

Daily Weather History Graph

Search for Another Location

Airport or City:

Trip Planner

Search our weather history database for the weather conditions in past years. The results will help you decide how hot, cold, wet, or windy it might be!

Date:

Astronomy

Jul. 27, 2013 Rise Set
Actual Time 5:38 AM CDT 8:17 PM CDT
Civil Twilight 5:06 AM CDT 8:49 PM CDT
Nautical Twilight 4:25 AM CDT 9:29 PM CDT
Astronomical Twilight 3:39 AM CDT 10:15 PM CDT
Moon 10:54 PM CDT (7/27) 11:28 AM CDT (7/27)
Length of Visible Light 15h 43m
Length of Day
14h 38m
Waning Gibbous, 70% of the Moon is Illuminated
Jul 27
Waning Gibbous
Jul 29
Last Quarter
Aug 6
New
Aug 14
First Quarter
Aug 20
Full

Hourly Weather History & Observations

Time (CDT) Temp. Dew Point Humidity Pressure Visibility Wind Dir Wind Speed Gust Speed Precip Events Conditions
12:53 AM 60.1 °F 57.0 °F 90% 29.88 in 10.0 mi WNW 4.6 mph - N/A   Clear
1:53 AM 60.1 °F 55.9 °F 86% 29.87 in 10.0 mi WNW 6.9 mph - N/A   Clear
2:53 AM 57.9 °F 55.0 °F 90% 29.88 in 10.0 mi NNW 4.6 mph - N/A   Clear
3:35 AM 59.0 °F 55.4 °F 88% 29.89 in 10.0 mi North 3.5 mph - N/A   Mostly Cloudy
3:53 AM 59.0 °F 55.9 °F 90% 29.89 in 10.0 mi Calm Calm - N/A   Overcast
4:37 AM 60.8 °F 55.4 °F 82% 29.90 in 10.0 mi NNW 8.1 mph - N/A   Overcast
4:53 AM 60.1 °F 55.9 °F 86% 29.90 in 10.0 mi NW 6.9 mph - N/A   Overcast
5:33 AM 57.2 °F 53.6 °F 88% 29.92 in 10.0 mi NW 10.4 mph - N/A   Overcast
5:53 AM 57.0 °F 53.1 °F 87% 29.91 in 10.0 mi NNW 12.7 mph - N/A   Overcast
6:05 AM 57.2 °F 51.8 °F 82% 29.92 in 10.0 mi NNW 9.2 mph - N/A   Overcast
6:28 AM 55.4 °F 51.8 °F 88% 29.92 in 10.0 mi NNW 11.5 mph - N/A   Overcast
6:53 AM 55.9 °F 50.0 °F 80% 29.92 in 10.0 mi NNW 9.2 mph - N/A   Overcast
7:53 AM 57.0 °F 51.1 °F 81% 29.93 in 10.0 mi NNW 4.6 mph - N/A   Overcast
8:05 AM 57.2 °F 51.8 °F 82% 29.93 in 10.0 mi NNW 5.8 mph - N/A   Overcast
8:35 AM 57.2 °F 51.8 °F 82% 29.92 in 10.0 mi NW 6.9 mph - N/A   Overcast
8:53 AM 57.0 °F 51.1 °F 81% 29.92 in 10.0 mi NW 10.4 mph - N/A   Overcast
9:53 AM 60.1 °F 51.1 °F 72% 29.92 in 10.0 mi WNW 6.9 mph - N/A   Mostly Cloudy
10:38 AM 60.8 °F 50.0 °F 68% 29.91 in 10.0 mi WNW 12.7 mph 18.4 mph N/A   Overcast
10:53 AM 61.0 °F 48.9 °F 64% 29.91 in 10.0 mi WNW 13.8 mph - N/A   Overcast
11:53 AM 60.1 °F 46.9 °F 62% 29.92 in 10.0 mi NW 9.2 mph - N/A   Overcast
12:53 PM 57.9 °F 46.9 °F 67% 29.92 in 10.0 mi NW 6.9 mph - N/A   Overcast
1:53 PM 59.0 °F 48.0 °F 67% 29.92 in 10.0 mi WNW 10.4 mph 16.1 mph N/A   Overcast
2:53 PM 59.0 °F 46.0 °F 62% 29.92 in 10.0 mi WNW 11.5 mph - N/A   Overcast
3:53 PM 60.1 °F 45.0 °F 57% 29.91 in 10.0 mi NW 10.4 mph - N/A   Overcast
4:53 PM 63.0 °F 46.9 °F 56% 29.90 in 10.0 mi WNW 10.4 mph - N/A   Overcast
5:53 PM 61.0 °F 46.0 °F 58% 29.90 in 10.0 mi WNW 8.1 mph - N/A   Mostly Cloudy
6:53 PM 60.1 °F 48.0 °F 64% 29.90 in 10.0 mi West 6.9 mph - N/A   Mostly Cloudy
7:53 PM 59.0 °F 48.0 °F 67% 29.90 in 10.0 mi West 4.6 mph - N/A   Overcast
8:53 PM 57.9 °F 48.9 °F 72% 29.89 in 10.0 mi SW 4.6 mph - N/A   Overcast
9:53 PM 57.9 °F 48.9 °F 72% 29.89 in 10.0 mi SW 4.6 mph - N/A   Overcast
10:53 PM 57.0 °F 48.0 °F 72% 29.88 in 10.0 mi WNW 12.7 mph 18.4 mph N/A   Overcast
11:18 PM 55.4 °F 48.2 °F 77% 29.88 in 10.0 mi WNW 9.2 mph - N/A   Overcast
11:53 PM 55.0 °F 48.0 °F 77% 29.88 in 10.0 mi West 9.2 mph - N/A   Overcast